Ellensburg, WA
on Friday, January 25, 2013

Friday
Previous Day Next Day
Daily Summary
 ActualAverage (KYKM)Record (KYKM)
Temperature
Mean Temperature °F 33°F  
Max Temperature 32°F 41°F 60°F (1962)
Min Temperature 23°F 24°F -13°F (1957)
Degree Days
Heating Degree Days 38 32  
Month to date heating degree days 866  
Since 1 July heating degree days 3529  
Cooling Degree Days 0 0  
Month to date cooling degree days 0  
Year to date cooling degree days 0  
Moisture
Dew Point 22°F   
Average Humidity 80    
Maximum Humidity 89    
Minimum Humidity 72    
Precipitation
Precipitation 0.01 in 0.04 in 0.72 in (1975)
Month to date precipitation 0.96  
Year to date precipitation 0.96  
Snow
Snow 0.00 in 0.10 in 3.60 in (1969)
Month to date snowfall 4.6  
Year to date snowfall 4.6  
Since 1 July snowfall 17.6  
Snow Depth in   
Wind
Wind Speed 1 mph   
Max Wind Speed 6 mph   
Max Gust Speed mph   
Visibility 4 miles   
Events Fog   

Key: T is trace of precipitation, MM is missing value
Source: NWS Daily Summary
Time(PST)TemperatureDew PointHumidity Pressure Visibility Wind DirectionWind SpeedGust SpeedPrecipitationEvents Conditions
12:02 AM 24.8°F 21.2°F 86% 30.12 in 5.0 miles Calm Calm - N/A   Overcast
12:53 AM 25.0°F 19.0°F 78% 30.17 in 5.0 miles Calm Calm - N/A   Haze
1:53 AM 25.0°F 19.9°F 81% 30.17 in 5.0 miles Calm Calm - N/A   Haze
2:53 AM 25.0°F 19.9°F 81% 30.15 in 5.0 miles Calm Calm - N/A   Haze
3:53 AM 25.0°F 19.9°F 81% 30.14 in 5.0 miles Calm Calm - N/A   Haze
4:51 AM 26.6°F 19.4°F 74% 30.07 in 4.0 miles Calm Calm - N/A   Haze
4:53 AM 26.1°F 19.9°F 78% 30.14 in 4.0 miles Calm Calm - N/A   Haze
5:53 AM 25.0°F 19.9°F 81% 30.13 in 5.0 miles Calm Calm - N/A   Haze
6:09 AM 24.8°F 19.4°F 80% 30.06 in 5.0 miles Calm Calm - N/A   Haze
6:53 AM 26.1°F 21.0°F 81% 30.13 in 5.0 miles Calm Calm - N/A   Haze
7:53 AM 25.0°F 19.9°F 81% 30.12 in 2.5 miles Calm Calm - N/A   Haze
8:00 AM 24.8°F 19.4°F 80% 30.06 in 3.0 miles Calm Calm - N/A   Haze
8:09 AM 23.0°F 17.6°F 80% 30.06 in 3.0 miles Calm Calm - N/A   Haze
8:53 AM 24.1°F 19.0°F 81% 30.13 in 4.0 miles WNW 3.5 mph - N/A   Haze
9:13 AM 24.8°F 19.4°F 80% 30.06 in 4.0 miles NW 4.6 mph - N/A   Haze
9:22 AM 24.8°F 19.4°F 80% 30.07 in 3.0 miles WNW 4.6 mph - N/A   Haze
9:53 AM 26.1°F 21.0°F 81% 30.14 in 3.0 miles Calm Calm - N/A   Haze
9:59 AM 26.6°F 21.2°F 80% 30.07 in 3.0 miles Calm Calm - N/A   Haze
10:53 AM 28.9°F 23.0°F 78% 30.12 in 3.0 miles SW 4.6 mph - N/A   Haze
11:10 AM 30.2°F 23.0°F 75% 30.05 in 4.0 miles SW 5.8 mph - N/A   Haze
11:20 AM 30.2°F 23.0°F 75% 30.05 in 4.0 miles WSW 3.5 mph - N/A   Haze
11:42 AM 30.2°F 24.8°F 80% 30.03 in 4.0 miles Calm Calm - N/A   Haze
11:53 AM 30.9°F 23.0°F 72% 30.09 in - ESE 3.5 mph - N/A   Partly Cloudy
12:53 PM 30.0°F 24.1°F 79% 30.06 in 4.0 miles Calm Calm - N/A   Haze
1:53 PM 30.9°F 24.1°F 76% 30.04 in - Calm Calm - N/A   Overcast
2:53 PM 32.0°F 25.0°F 75% 30.02 in - Calm Calm - N/A   Overcast
3:53 PM 32.0°F 25.0°F 75% 30.01 in 5.0 miles Calm Calm - N/A   Haze
4:53 PM 32.0°F 25.0°F 75% 30.01 in 4.0 miles Calm Calm - N/A   Haze
5:53 PM 30.0°F 24.1°F 79% 30.01 in 5.0 miles SE 4.6 mph - N/A   Haze
6:53 PM 28.0°F 23.0°F 81% 30.01 in 4.0 miles Calm Calm - N/A   Haze
7:36 PM 28.4°F 21.2°F 74% 29.94 in 4.0 miles Calm Calm - 0.01 in   Overcast
7:53 PM 28.0°F 24.1°F 85% 30.00 in 4.0 miles Calm Calm - 0.01 in   Overcast
8:22 PM 28.4°F 24.8°F 86% 29.93 in 3.0 miles Calm Calm - 0.00 in   Haze
8:53 PM 28.0°F 23.0°F 81% 29.99 in 3.0 miles East 3.5 mph - 0.00 in   Haze
9:42 PM 28.4°F 24.8°F 86% 29.92 in 3.0 miles NE 3.5 mph - N/A   Overcast
9:53 PM 30.0°F 25.0°F 82% 29.97 in 3.0 miles Calm Calm - N/A   Haze
10:33 PM 30.2°F 24.8°F 80% 29.91 in 3.0 miles West 3.5 mph - N/A   Haze
10:53 PM 28.9°F 25.0°F 85% 29.98 in 3.0 miles Calm Calm - N/A   Overcast
11:01 PM 28.4°F 24.8°F 86% 29.92 in 2.5 miles Calm Calm - N/A   Overcast
11:23 PM 28.4°F 24.8°F 86% 29.93 in 1.0 miles Calm Calm - N/A   Overcast
11:30 PM 28.4°F 24.8°F 86% 29.93 in 0.2 miles Calm Calm - N/A Fog Light Freezing Fog
11:53 PM 28.9°F 26.1°F 89% 29.99 in 0.2 miles ESE 3.5 mph - N/A Fog Light Freezing Fog
Moon Phase
Jan. 25 Jan. 26 Feb. 03 Feb. 10 Feb. 17
Sunrise:07:34 AM (PST) Moon Rise:03:57 PM (PST)1/25
Sunset:04:54 PM (PST) Moon Set:06:18 AM (PST)1/25

Copyright © 2014 The Weather Underground, Inc.